Weather History for KTDZ - December, 2013

Change the Weather History Date:

Sunday, December 29, 2013

  Actual Average (KTOL) Record (KTOL)
Temperature  
Mean Temperature 36 °F 27 °F  
Max Temperature 44 °F 33 °F 70 °F (1889)
Min Temperature 28 °F 20 °F -10 °F (1880)
Degree Days  
Heating Degree Days 29 38  
Month to date heating degree days 1014  
Since 1 July heating degree days 2247  
Cooling Degree Days 0 0  
Month to date cooling degree days 0  
Year to date cooling degree days 793  
Moisture  
Dew Point 28 °F    
Average Humidity 70    
Maximum Humidity 87    
Minimum Humidity 57    
Precipitation  
Precipitation 0.00 in 0.08 in 1.06 in (1990)
Month to date precipitation 2.52  
Year to date precipitation 34.08  
Snow  
Snow 0.00 in 0.40 in - ()
Month to date snowfall 6.8  
Since 1 July snowfall 8.9  
Snow Depth -    
Sea Level Pressure  
Sea Level Pressure 29.84 in    
Wind  
Wind Speed 11 mph (West)    
Max Wind Speed 18 mph    
Max Gust Speed 26 mph    
Visibility 10 miles    
Events Snow    
T = Trace of Precipitation, MM = Missing Value Source: NWS Daily Summary

Daily Weather History Graph

Daily Weather History Graph

Search for Another Location

Airport or City:

Trip Planner

Search our weather history database for the weather conditions in past years. The results will help you decide how hot, cold, wet, or windy it might be!

Date:

Astronomy

Dec. 29, 2013 Rise Set
Actual Time 8:00 AM EST 5:12 PM EST
Civil Twilight 7:28 AM EST 5:43 PM EST
Nautical Twilight 6:53 AM EST 6:18 PM EST
Astronomical Twilight 6:20 AM EST 6:52 PM EST
Moon 4:41 AM EST 2:50 PM EST
Length of Visible Light 10h 14m
Length of Day
9h 12m
Waning Crescent, 11% of the Moon is Illuminated
Dec 29
Waning Crescent
Jan 1
New
Jan 7
First Quarter
Jan 15
Full
Jan 24
Last Quarter

Hourly Weather History & Observations

Time (EST) Temp. Windchill Dew Point Humidity Pressure Visibility Wind Dir Wind Speed Gust Speed Precip Events Conditions
12:53 AM 39.0 °F 32.3 °F 30.0 °F 70% 29.94 in 10.0 mi SSW 10.4 mph - N/A   Clear
4:53 AM 37.9 °F 32.1 °F 27.0 °F 65% 29.88 in 10.0 mi SW 8.1 mph - N/A   Unknown
5:53 AM 37.0 °F 31.0 °F 28.0 °F 70% 29.86 in 10.0 mi SSW 8.1 mph - N/A   Clear
6:53 AM 37.9 °F 31.5 °F 28.0 °F 68% 29.82 in 10.0 mi South 9.2 mph - N/A   Partly Cloudy
7:53 AM 37.9 °F 31.5 °F 28.0 °F 68% 29.83 in 10.0 mi SW 9.2 mph - N/A   Clear
8:53 AM 39.0 °F 34.0 °F 28.0 °F 65% 29.81 in 10.0 mi SW 6.9 mph - N/A   Mostly Cloudy
9:53 AM 41.0 °F 33.9 °F 27.0 °F 57% 29.79 in 10.0 mi SSW 12.7 mph - N/A   Mostly Cloudy
10:53 AM 39.9 °F 33.4 °F 28.9 °F 65% 29.78 in 10.0 mi SW 10.4 mph - N/A   Overcast
11:53 AM 41.0 °F 34.3 °F 30.0 °F 65% 29.76 in 10.0 mi WSW 11.5 mph - N/A   Clear
12:53 PM 42.1 °F 35.7 °F 30.0 °F 62% 29.74 in 10.0 mi WSW 11.5 mph - N/A   Clear
1:53 PM 43.0 °F 36.4 °F 30.0 °F 60% 29.72 in 10.0 mi WSW 12.7 mph - N/A   Clear
2:53 PM 44.1 °F 37.4 °F 30.9 °F 60% 29.73 in 10.0 mi WSW 13.8 mph - N/A   Clear
3:53 PM 44.1 °F 37.4 °F 30.9 °F 60% 29.74 in 10.0 mi West 13.8 mph - N/A   Overcast
4:53 PM 41.0 °F 34.7 °F 30.9 °F 67% 29.76 in 10.0 mi WNW 10.4 mph - N/A   Overcast
5:53 PM 39.9 °F 31.8 °F 30.0 °F 68% 29.80 in 10.0 mi West 15.0 mph - N/A   Overcast
6:30 PM 39.2 °F 33.0 °F 30.2 °F 70% 29.80 in 8.0 mi West 9.2 mph - N/A   Overcast
6:53 PM 34.0 °F 23.0 °F 30.0 °F 85% 29.85 in 4.0 mi NW 18.4 mph 26.5 mph 0.00 in Snow Light Snow
7:42 PM 32.0 °F 20.8 °F 28.4 °F 87% 29.87 in 10.0 mi NW 17.3 mph - 0.00 in   Overcast
7:53 PM 32.0 °F 21.2 °F 27.0 °F 82% 29.90 in 10.0 mi NNW 16.1 mph - 0.00 in   Overcast
8:53 PM 30.0 °F 20.5 °F 24.1 °F 79% 29.94 in 10.0 mi NW 11.5 mph 21.9 mph N/A   Overcast
9:53 PM 28.9 °F 19.8 °F 24.1 °F 82% 29.96 in 10.0 mi NW 10.4 mph - N/A   Overcast
10:53 PM 28.0 °F 17.0 °F 21.0 °F 75% 29.99 in 10.0 mi NW 13.8 mph - N/A   Overcast
11:00 PM 28.4 °F 17.0 °F 21.2 °F 74% 29.98 in 10.0 mi NW 15.0 mph - N/A   Overcast
11:53 PM 28.0 °F 17.0 °F 21.0 °F 75% 30.01 in 10.0 mi NW 13.8 mph - N/A   Overcast